Location: Calvatone
(45.1167°N, 10.4333°E)
Time: 15:27:30
(UTC+00:00)

SL-16 R/B - Pass Details

Date: 28 January 2023
Orbit: 842 x 846 km, 71.0° (Epoch: 30 March)

Event Time Altitude Azimuth Distance (km) Brightness Sun altitude
Rises 18:12:38 0° 192° (SSW) 3,383 5.6 -19.9°
Reaches altitude 10° 18:15:05 10° 188° (S) 2,453 4.8 -20.4°
Maximum altitude 18:20:36 59° 110° (ESE) 974 2.2 -21.3°
Enters shadow 18:22:25 40° 53° (NE) 1,227 2.6 -21.6°
